Location: Stull Observatory
(42.2506°N, 77.7903°W)
Time: 14:26:53
(UTC-05:00)

ISS - All Passes

Search period start: 13 February 2016 00:00
Search period end: 23 February 2016 00:00
Orbit: 398 x 407 km, 51.6° (Epoch: 13 February)

Date Brightness Start Highest point End Pass type
(mag) Time Alt. Az. Time Alt. Az. Time Alt. Az.
13 Feb - 14:24:58 10° SW 14:28:08 51° SE 14:31:18 10° ENE daylight
13 Feb - 16:01:52 10° W 16:04:43 27° NNW 16:07:34 10° NE daylight
13 Feb - 17:39:53 10° NW 17:41:57 15° N 17:44:00 10° NE daylight
13 Feb - 19:16:30 10° NW 19:19:13 24° NNE 19:21:56 10° ENE visible
13 Feb - 20:52:41 10° WNW 20:55:55 67° SW 20:59:06 10° SE visible
14 Feb - 13:32:41 10° SSW 13:35:28 26° SE 13:38:15 10° ENE daylight
14 Feb - 15:08:42 10° W 15:11:48 40° NNW 15:14:54 10° NE daylight
14 Feb - 16:46:41 10° NW 16:48:53 17° N 16:51:04 10° NE daylight
14 Feb - 18:23:48 10° NW 18:26:13 19° NNE 18:28:37 10° ENE visible
14 Feb - 19:59:54 10° NW 20:03:08 65° NNE 20:06:20 10° ESE visible
14 Feb - 21:37:17 10° W 21:39:13 15° SW 21:41:09 10° S night (unlit)
15 Feb - 12:41:03 10° SSE 12:42:52 14° SE 12:44:41 10° E daylight
15 Feb - 14:15:41 10° WSW 14:18:56 69° NNW 14:22:11 10° NE daylight
15 Feb - 15:53:22 10° WNW 15:55:49 19° NNW 15:58:15 10° NE daylight
15 Feb - 17:30:59 10° NW 17:33:09 16° N 17:35:18 10° NE daylight
15 Feb - 19:07:11 10° NW 19:10:14 38° NNE 19:13:18 10° E visible
15 Feb - 20:43:46 10° WNW 20:46:36 28° SW 20:49:25 10° SSE visible
16 Feb - 13:22:54 10° SW 13:26:06 62° SE 13:29:19 10° ENE daylight
16 Feb - 15:00:00 10° WNW 15:02:46 25° NNW 15:05:31 10° NE daylight
16 Feb - 16:37:57 10° NW 16:40:01 15° N 16:42:04 10° NE daylight
16 Feb - 18:14:27 10° NW 18:17:15 26° NNE 18:20:03 10° E visible
16 Feb - 19:50:40 10° WNW 19:53:51 55° SW 19:57:01 10° SE visible
17 Feb - 12:30:23 10° SSW 12:33:20 31° SE 12:36:16 10° ENE daylight
17 Feb - 14:06:42 10° W 14:09:43 35° NNW 14:12:46 10° NE daylight
17 Feb - 15:44:42 10° NW 15:46:51 16° N 15:48:59 10° NE daylight
17 Feb - 17:21:40 10° NW 17:24:09 20° NNE 17:26:40 10° ENE daylight
17 Feb - 18:57:45 10° NW 19:01:00 78° NNE 19:04:14 10° ESE visible
17 Feb - 20:35:34 10° WSW 20:37:01 12° SW 20:38:27 10° SSW visible
18 Feb - 11:38:23 10° S 11:40:36 17° SE 11:42:48 10° E daylight
18 Feb - 13:13:30 10° WSW 13:16:44 59° NNW 13:19:57 10° NE daylight
18 Feb - 14:51:17 10° WNW 14:53:40 18° NNW 14:56:02 10° NE daylight
18 Feb - 16:28:46 10° NW 16:31:00 17° N 16:33:14 10° NE daylight
18 Feb - 18:04:55 10° NW 18:08:03 44° NNE 18:11:10 10° ESE daylight
18 Feb - 19:41:40 10° W 19:44:19 23° SW 19:46:57 10° S visible
19 Feb - 12:20:32 10° SW 12:23:47 76° SE 12:27:02 10° ENE daylight
19 Feb - 13:57:49 10° WNW 14:00:30 23° NNW 14:03:11 10° NE daylight
19 Feb - 15:35:42 10° NW 15:37:47 16° N 15:39:51 10° NE daylight
19 Feb - 17:12:04 10° NW 17:14:58 29° NNE 17:17:51 10° E daylight
19 Feb - 18:48:23 10° WNW 18:51:30 45° SW 18:54:36 10° SSE visible
20 Feb - 11:27:50 10° SSW 11:30:53 38° SE 11:33:56 10° ENE daylight
20 Feb - 13:04:23 10° W 13:07:21 32° NNW 13:10:19 10° NE daylight
20 Feb - 14:42:24 10° NW 14:44:30 16° N 14:46:36 10° NE daylight
20 Feb - 16:19:12 10° NW 16:21:48 21° NNE 16:24:23 10° ENE daylight
20 Feb - 17:55:19 10° NW 17:58:35 89° SSW 18:01:49 10° SE daylight
20 Feb - 19:33:59 10° WSW 19:34:30 10° SW 19:35:01 10° SW visible
21 Feb - 10:35:33 10° S 10:38:02 20° SE 10:40:30 10° E daylight
21 Feb - 12:11:03 10° WSW 12:14:14 50° NNW 12:17:26 10° NE daylight
21 Feb - 13:48:55 10° NW 13:51:13 18° N 13:53:32 10° NE daylight
21 Feb - 15:26:14 10° NW 15:28:33 18° N 15:30:51 10° NE daylight
21 Feb - 17:02:21 10° NW 17:05:32 50° NNE 17:08:41 10° ESE daylight
21 Feb - 18:39:17 10° W 18:41:44 20° SW 18:44:09 10° S visible
22 Feb - 09:44:31 10° SE 09:45:14 11° SE 09:45:56 10° ESE daylight
22 Feb - 11:17:54 10° SW 11:21:10 89° SE 11:24:26 10° NE daylight
22 Feb - 12:55:20 10° WNW 12:57:56 21° NNW 13:00:32 10° NE daylight
22 Feb - 14:33:07 10° NW 14:35:14 16° N 14:37:20 10° NE daylight
22 Feb - 16:09:25 10° NW 16:12:23 32° NNE 16:15:20 10° E daylight
22 Feb - 17:45:48 10° WNW 17:48:51 37° SW 17:51:51 10° SSE daylight
